PDT,Max TemperatureF,Mean TemperatureF,Min TemperatureF,Max Dew PointF,MeanDew PointF,Min DewpointF,Max Humidity, Mean Humidity, Min Humidity, Max Sea Level PressureIn, Mean Sea Level PressureIn, Min Sea Level PressureIn, Max VisibilityMiles, Mean VisibilityMiles, Min VisibilityMiles, Max Wind SpeedMPH, Mean Wind SpeedMPH, Max Gust SpeedMPH,PrecipitationIn, CloudCover, Events, WindDirDegrees
2013-10-1,60,52,43,49,47,41,89,76,62,30.20,30.07,29.99,10,9,3,14,3,18,0.50,6,Rain,185
2013-10-2,55,49,43,48,44,42,93,82,71,30.19,30.13,30.08,10,10,3,13,3,20,0.24,6,Rain,174
2013-10-3,56,48,39,46,45,41,96,81,66,30.44,30.32,30.20,10,8,3,7,1,8,0.03,7,Rain,232
2013-10-4,67,53,38,52,43,37,100,74,48,30.45,30.42,30.33,10,7,1,15,4,21,0.00,3,,25
2013-10-5,71,58,45,48,45,43,100,69,38,30.34,30.25,30.13,10,7,0,13,6,18,0.00,1,Fog,23
2013-10-6,76,62,48,47,44,37,83,54,25,30.14,30.03,29.96,10,10,10,21,7,28,0.00,0,,129
2013-10-7,62,57,52,52,49,45,93,74,55,30.13,30.05,29.98,10,9,4,14,5,21,0.16,8,Rain,222
2013-10-8,56,50,43,52,47,42,93,83,72,30.14,30.04,29.99,10,8,1,16,4,25,0.33,7,Rain,226
2013-10-9,62,51,40,46,43,39,100,75,49,30.12,30.05,29.98,10,9,1,7,1,9,0.00,5,,61
2013-10-10,60,52,44,52,47,42,96,76,55,30.09,30.01,29.96,10,10,6,9,1,13,0.02,7,Rain,121
2013-10-11,59,54,48,50,47,45,96,79,62,30.15,30.12,30.09,10,9,6,6,0,8,T,7,,165
2013-10-12,58,51,43,48,47,41,96,79,62,30.18,30.11,30.07,10,9,4,6,1,8,0.04,7,Rain,107
2013-10-13,64,54,43,47,44,42,93,72,51,30.31,30.24,30.17,10,9,1,7,2,9,0.00,5,,186
2013-10-14,68,55,41,48,43,39,100,71,42,30.37,30.33,30.29,10,9,0,14,3,18,0.00,3,Fog,65
2013-10-15,67,54,40,42,40,38,93,65,37,30.34,30.24,30.13,10,10,8,21,8,26,0.00,0,,79
2013-10-16,65,52,38,46,42,38,92,68,44,30.17,30.14,30.10,10,9,2,9,1,12,0.00,0,,260
2013-10-17,67,54,41,50,44,39,100,76,51,30.24,30.19,30.14,10,6,0,15,3,25,0.00,3,Fog,281
2013-10-18,69,59,48,44,41,39,80,59,37,30.17,30.13,30.08,10,10,10,24,13,33,0.00,0,,89
2013-10-19,68,53,38,47,44,37,100,71,42,30.16,30.12,30.09,10,9,2,7,1,8,0.00,0,,250
2013-10-20,63,51,39,49,44,37,100,80,60,30.17,30.12,30.06,10,6,0,8,2,12,0.00,3,Fog,248
2013-10-21,74,60,45,49,45,43,100,68,35,30.10,30.06,29.98,10,5,0,24,10,30,0.00,3,Fog,4
2013-10-22,74,62,50,49,45,43,80,59,38,30.04,29.99,29.94,10,10,10,25,12,33,0.00,0,,82
2013-10-23,73,60,46,51,48,46,93,67,41,30.00,29.97,29.92,10,9,5,20,6,25,0.00,0,,15
2013-10-24,67,57,46,51,48,45,100,78,56,30.11,30.02,29.98,10,6,0,9,2,12,0.00,3,Fog,272
2013-10-25,55,53,50,49,48,46,93,85,77,30.27,30.19,30.10,10,6,0,6,1,8,0.00,8,Fog,281
2013-10-26,58,51,44,49,47,45,89,78,67,30.29,30.24,30.17,10,8,4,8,1,12,0.00,6,,305
2013-10-27,59,53,46,49,46,42,93,75,57,30.17,29.93,29.83,10,7,2,12,3,15,0.26,8,Rain,282
2013-10-28,60,48,35,45,35,26,93,61,28,29.93,29.86,29.83,10,9,2,22,6,33,0.00,2,,76
2013-10-29,59,45,30,37,32,28,92,63,33,30.07,30.01,29.94,10,10,10,10,2,21,0.00,0,,100
2013-10-30,58,45,31,44,36,30,89,68,47,30.19,30.15,30.07,10,10,5,7,1,9,0.01,3,Rain,80
2013-10-31,58,54,49,52,49,44,96,87,77,30.28,30.22,30.17,10,9,2,7,2,8,0.02,8,Rain,69